Location: Complexul Astronomic Baia Mare
(47.6577°N, 23.5639°E)
Time: 06:44:34
(UTC+03:00)

ISS - Pass Details

Date: 22 May 2017
Orbit: 402 x 408 km, 51.6° (Epoch: 29 May)

Event Time Altitude Azimuth Distance (km) Brightness Sun altitude
Exits shadow 01:33:45 49° 324° (NW) 534 -3.0 -21.9°
Maximum altitude 01:34:03 51° 346° (NNW) 519 -3.0 -21.9°
Drops below altitude 10° 01:37:16 10° 64° (ENE) 1,468 -0.6 -21.9°
Sets 01:39:24 0° 69° (ENE) 2,328 0.4 -21.9°
